Location: French River
(46.0362°N, 80.5373°W)
Time: 02:59:06
(UTC-05:00)

ISS - Visible Passes

Search period start: 29 November 2023 00:00
Search period end: 09 December 2023 00:00
Orbit: 416 x 418 km, 51.6° (Epoch: 29 November)

Date Brightness Start Highest point End Pass type
(mag) Time Alt. Az. Time Alt. Az. Time Alt. Az.
29 Nov -3.4 18:29:35 10° WNW 18:32:40 48° N 18:32:40 48° N visible
30 Nov -3.1 17:41:14 10° WNW 17:44:25 38° NNE 17:46:27 18° ENE visible
30 Nov -1.3 19:17:58 10° WNW 19:19:23 22° WNW 19:19:23 22° WNW visible
01 Dec -3.9 18:29:33 10° WNW 18:32:55 87° SSW 18:33:14 71° SE visible
02 Dec -3.8 17:41:08 10° WNW 17:44:28 64° NNE 17:47:13 14° ESE visible
02 Dec -1.2 19:18:14 10° W 19:20:10 21° WSW 19:20:10 21° WSW visible
03 Dec -2.4 18:29:30 10° WNW 18:32:38 37° SW 18:34:20 21° SSE visible
04 Dec -3.2 17:40:52 10° WNW 17:44:12 60° SSW 17:47:30 10° SE visible
05 Dec -0.8 18:29:52 10° W 18:31:59 16° SW 18:34:07 10° S visible
06 Dec -1.3 17:40:44 10° W 17:43:34 25° SW 17:46:22 10° SSE visible
08 Dec 0.0 17:41:54 10° WSW 17:42:34 10° SW 17:43:14 10° SW visible
